Flag for U.S.A. Weather past 2 weeks in Scottsdale, Arizona, U.S.A.

Now
82 °F

Sunny.


Feels Like: 80 °F
Forecast: 68 / 94 °F
Wind: 3 mph from Southeast

Location: Scottsdale Airport

Current Time: May 29, 2015 at 9:54:56 AM

Latest Report: May 29, 2015 at 8:53 AM


Visibility: 10 mi

Pressure: 29.89 "Hg

Humidity: 19%

Dew point: 36 °F

Location of ScottsdaleLocation

Historic Weather in Scottsdale — Graph

°F

Scottsdale temperature yesterday

Maximum temperature yesterday: 95 °F (at 3:53 PM)
Minimum temperature yesterday: 66 °F (at 5:53 AM)
Average temperature yesterday: 83 °F

Past Weeks' High & Low Weather Summary

 TemperatureHumidityPressure
High95 °F (May 28, 3:53 PM)93% (May 15, 4:53 PM)29.98 "Hg (May 15, 4:53 PM)
Low54 °F (May 15, 11:53 PM)8% (May 18, 6:53 PM)29.68 "Hg (May 14, 3:53 PM)
Average74 °F31%29.84 "Hg
* Reported May 14 7:53 AM — May 29 7:53 AM, Scottsdale, Weather by CustomWeather, © 2015

Note: Actual official high and low records may vary slightly from our data, if they occured in-between our weather recording intervals... More about our weather records

Advertising

Scottsdale weather history for previous 24 hours

 ConditionsComfort  
Time TempWeatherWind HumidityBarometerVisibility
7:53 AM
Fri, May 29
78 °FSunny.No wind27%29.88 "Hg10 mi
6:53 AM73 °FSunny.No wind33%29.87 "Hg10 mi
5:53 AM72 °FSunny.No wind29%29.84 "Hg10 mi
4:53 AM70 °FClear.No wind37%29.82 "Hg10 mi
3:53 AM71 °FClear.No wind34%29.81 "Hg10 mi
2:53 AM72 °FClear.No wind33%29.80 "Hg10 mi
1:53 AM76 °FClear.No wind23%29.80 "Hg10 mi
12:53 AM77 °FClear.No wind26%29.81 "Hg10 mi
11:53 PM
Thu, May 28
82 °FClear.3 mph16%29.80 "Hg10 mi
10:53 PM83 °FClear.5 mph17%29.81 "Hg10 mi
9:53 PM86 °FClear.No wind16%29.80 "Hg10 mi
8:53 PM87 °FClear.No wind14%29.79 "Hg10 mi
7:53 PM91 °FClear.No wind10%29.78 "Hg10 mi
6:53 PM93 °FSunny.No wind9%29.77 "Hg10 mi
5:53 PM94 °FSunny.8 mph8%29.77 "Hg10 mi
4:53 PM95 °FSunny.3 mph9%29.78 "Hg10 mi
3:53 PM95 °FSunny.6 mph8%29.79 "Hg10 mi
2:53 PM94 °FSunny.9 mph9%29.81 "Hg10 mi
1:53 PM94 °FSunny.6 mph10%29.83 "Hg10 mi
12:53 PM92 °FSunny.3 mph10%29.85 "Hg10 mi
11:53 AM91 °FSunny.5 mph11%29.87 "Hg10 mi
10:53 AM89 °FSunny.3 mph12%29.88 "Hg10 mi
9:53 AM85 °FSunny.No wind17%29.89 "Hg10 mi
Weather by CustomWeather, © 2015

See weather overviewHow to use our weather pages